Regional Weather Roundup
Issued by NWS Newport/Morehead, NC

Current Version | Previous Version | Graphics & Text | Print | Product List | Glossary Off
Versions: 1 2 3 4 5 6 7 8 9 10 11 12 13 14 15 16 17 18 19 20 21 22 23 24 25 26 27 28 29 30 31 32 33 34 35 36 37 38 39 40 41 42 43 44 45 46 47 48 49 50

000
ASUS42 KMHX 290225
RWRMHX
WEATHER ROUNDUP FOR EASTERN NORTH CAROLINA
NATIONAL WEATHER SERVICE NEWPORT/MOREHEAD CITY NC
1000 PM EDT TUE JUL 28 2015

NOTE: "FAIR" INDICATES FEW OR NO CLOUDS BELOW 12,000 FEET
WITH NO SIGNIFICANT WEATHER AND/OR OBSTRUCTIONS TO VISIBILITY

NCZ015>017-031-032-045>047-102-103-290300-
NORTH COAST

CITY           SKY/WX    TMP DP  RH WIND       PRES   REMARKS
EDENTON          N/A     78  71  77 S3        30.01R
ELIZABETH CITY MOCLDY    78  70  76 S6        30.00R
KITTY HAWK     PTCLDY    78  69  74 CALM      30.00R
MANTEO         PTCLDY    77  71  80 CALM      30.02R

$$

NCZ045>047-081-094-103-104-290300-
CENTRAL COAST

CITY           SKY/WX    TMP DP  RH WIND       PRES   REMARKS
FRISCO         CLEAR     77  69  76 E5        30.01R
SWANQUARTER      N/A     77 N/A N/A CALM      29.97S

$$

NCZ095-097-098-100-101-290300-
SOUTHERN COAST

CITY           SKY/WX    TMP DP  RH WIND       PRES   REMARKS
BEAUFORT       PTCLDY    79  72  79 CALM      30.00R
CEDAR ISLAND     N/A     81 N/A N/A NE7G14    30.03S
JACKSONVILLE   MOCLDY    78  71  79 VRB6      29.99R
PINEY ISLAND   PTCLDY   N/A N/A N/A E6        30.00R
WILMINGTON     MOCLDY    78  71  79 E5        29.98S


$$

NCZ011>013-027>030-043-044-078>080-089-090>093-098-290300-
COASTAL PLAIN

CITY           SKY/WX    TMP DP  RH WIND       PRES   REMARKS
AHOSKIE        PTCLDY    74  67  79 CALM      30.01R
CLINTON        PTCLDY    79  72  77 CALM      29.99R
ELIZABETHTOWN  PTCLDY    79  70  73 CALM      29.99R
GOLDSBORO      MOCLDY    81  74  80 SE5       29.97S
GREENVILLE     PTCLDY    81  72  74 SE6       30.02R
HAVELOCK       MOCLDY    77  71  82 E3        30.00R
KENANSVILLE    MOCLDY    76  70  80 CALM      30.00S
KINSTON        NOT AVBL
NEW BERN       PTCLDY    77  70  79 S3        30.00R
RICHLANDS      MOCLDY    73  66  78 CALM      30.00R
ROCKY MOUNT    MOCLDY    76  72  87 CALM      29.99R
WASHINGTON     PTCLDY    76  71  83 CALM      30.01R
WHITEVILLE     PTCLDY    78  70  76 CALM      29.98S

$$

AMZ130-135-150-152-154-156-158-170-250-252-270-ANZ085-086-088-633-658-670-290300-
MARINE OBSERVATIONS

STATION/POSITION TIME  TEMP    WIND        PRES    WAVE   SWELL
                       AIR SEA DIR/SP/G            HT/PER HT/PER
                 (UTC) (F)     (DEG/KT/KT) (MB)    (FT/S) (FT/S)
CHESAPEAKE LIGHT 0200   80     170/ 12/ 13 1017.0
64 E VA BEACH    0150   80 81  150/  6/  6 1016.3    2/ 6   2/ 6
DUCK             0200   79 76  150/  9/ 10 1015.3
2 E DUCK         0111      81                N/A     2/11   2/11
OREGON INLET     0200   79 85  120/  4/  5 1016.1
13E OREGON INLT  0200      79                N/A     2/11   2/11
HATTERAS CG      0200   80 84   80/  6/  7 1015.7
DIAMOND BUOY     NOT AVBL
CAPE LOOKOUT     0200   81      80/ 12/ 13 1015.3
BEAUFORT LAB     0200   80 81   50/  2/  4 1015.1
30 SE NEW RVR IN NOT AVBL
27 SE WRIGHTSVLE 0200   79 81   80/ 10/ 12   N/A
5 SE WRIGHTSVLE  0108   81 81   90/  8/ 12 1015.0
225 S CAPE HAT   0150   82 82  220/ 17/ 19 1014.5    7/ 7   2/11
41 SE CHARLESTON 0150   83 84   80/  8/ 10 1014.1    3/ 7   3/ 7

$$



USA.gov is the U.S. government's official web portal to all federal, state and local government web resources and services.